Find STARLINK-37423

NORAD ID: 68852 Int'l Des: 2026-094P Owner: starlink Country: USA Constellation: starlink operational
LEOCIRCULARRETROGRADE

实时位置

正在加载3D地球...

关于 STARLINK-37423

正在加载描述...

即将过境

Passes for default location (London). Set your location on the main map for personalized predictions.

高度历史

Loading altitude history...

两行轨道根数

1 68852U 26094P 26121.83336806 -.01733597 93648-3 -29893-2 0 9992
2 68852 97.2821 135.4410 0001407 60.0865 51.0068 16.02505963 1913
Epoch: May 1, 2026 • Age: 6 hours

当前状态

高度 278.5 km
速度 7.75 km/s
星下点 55.55°N, 121.49°W
类型 internet

Most Searched